User: anonymous   Login
Location: ??????
(42.0089°N, 44.3281°E)
Time: 12:33:13
(UTC+00:00)
Language:

Cosmos 220 Rocket - Orbit

View from above orbital plane
View from above orbital plane
View from above satellite
View from above satellite

Ground track
Ground track

The orbit data is extracted from the following two-line orbital elements,

1 03230U 68040B   22272.89755428  .00001605  00000-0  16225-3 0  9990
2 03230  74.0370 336.2879 0028321 135.1310 225.2169 14.91672946901959
Epoch (UTC): 29 September 2022 21:32:28
Eccentricity: 0.0028321
inclination: 74.0370°
perigee height: 573 km
apogee height: 612 km
right ascension of ascending node: 336.2879°
argument of perigee: 135.1310°
revolutions per day: 14.91672946
mean anomaly at epoch: 225.2169°
orbit number at epoch: 90195

The dashed part of the orbit path shows where the satellite is in the earth's shadow,  

DLR